Other Public Products
Issued by NWS Charleston, SC

Current Version | Previous Version | Text Only | Print | Product List | Glossary Off
Versions: 1 2 3 4 5 6 7 8 9 10 11 12 13 14 15 16 17 18 19 20 21 22 23 24 25 26 27 28 29 30 31 32 33 34 35 36 37 38 39 40 41 42 43 44 45 46 47 48 49 50

000
FPUS82 KCHS 240527
OPUCHS

TEST...KCHS/KSAV Gateway Observations...TEST
National Weather Service Charleston SC
100 AM EDT SAT JUN 24 2017

NOTE: "fair" indicates few or no clouds below 12,000 feet with no
significant weather and/or obstructions to visibility.

SCZ050-WAZ558-NCZ071-TXZ119-213-PAZ071-DCZ001-FLZ074-172-MI076-
NYZ176-178-MAZ016-IL014-TNZ027-NJZ106-GAZ044-MD014-240600-

...Gateway Observations for Charleston International...

CITY           SKY/WX    TMP DP  RH WIND       PRES   REMARKS
Chas Airport   PTCLDY    80  73  79 S15       30.00F
Seattle        CLEAR     67  51  56 N9        30.15R
Charlotte      MOCLDY    76  72  87 W7        29.90F
Dallas DFW     CLOUDY    88  77  69 S7        29.90R THUNDER HX 100
Dallas Love    CLOUDY    89  76  65 SE15      29.91R THUNDER HX 100
Philladelphia  MOCLDY    83  71  67 SW21G29   29.65F
Wash National  CLOUDY    84  72  67 S14       29.67F
Baltimore      MOCLDY    83  71  67 SW12      29.66F
Miami          PTCLDY    84  74  71 SE8       30.05F HX  91
Detroit        PTCLDY    67  57  70 W8        29.75R
Newark         CLOUDY    79  73  82 W10       29.62S
Laguardia      MOCLDY    82  74  76 SW9       29.61F
J F K          MOCLDY    72  71  97 S12       29.64S
Boston Logan   MOCLDY    73  70  90 S12       29.57F
Ft. Lauderdale PTCLDY    82  76  81 SE9       30.05F
Chicago O`Hare CLEAR     68  54  60 NW8       29.85R
Chicago Midway PTCLDY    69  55  60 NW12      29.85R
Houston Bush   PTCLDY    82  76  81 S8        29.92R
Houston Hobby  PTCLDY    82  77  84 S8        29.91R HX  90
Nashville      CLOUDY    78  73  84 W7        29.89R
Atlanta        PTCLDY    72  71  97 SW9       29.98F

$$

GAZ044-118-TXZ119-213-NCZ071-DCZ001-MDZ014-506-PAZ021-071-NJZ106-
NYZ176-178-MAZ106-OHZ011-021-055-MIZ076-KYZ091-ILZ014-INZ047-
MNZ060-ONZ431-240600-

...Gateway Observations for Savannah International...

CITY           SKY/WX    TMP DP  RH WIND       PRES   REMARKS
Savannah Arpt  CLEAR     80  73  79 S8        30.03S
Atlanta        PTCLDY    72  71  97 SW9       29.98F
Charlotte      MOCLDY    76  72  87 W7        29.90F
Dallas DFW     CLOUDY    88  77  69 S7        29.90R THUNDER HX 100
Houston Bush   PTCLDY    82  76  81 S8        29.92R
Wash National  CLOUDY    84  72  67 S14       29.67F
Wash Dulles    LGT RAIN  81  70  69 S15       29.67F
Baltimore      MOCLDY    83  71  67 SW12      29.66F
Philadelphia   MOCLDY    83  71  67 SW21G29   29.65F
Newark         CLOUDY    79  73  82 W10       29.62S
Laguardia      MOCLDY    82  74  76 SW9       29.61F
J F K          MOCLDY    72  71  97 S12       29.64S
Boston         MOCLDY    73  70  90 S12       29.57F
Pittsburg      CLOUDY    68  68 100 W6        29.72F
Akron          LGT RAIN  69  65  86 W9        29.74R FOG
Cleveland      MOCLDY    71  67  87 W12       29.75R
Cincinnati     CLOUDY    66  65  96 CALM      29.88R
Columbus       CLOUDY    66  66  98 W6        29.81S
Detroit        PTCLDY    67  57  70 W8        29.75R
Chicago O`Hare CLEAR     68  54  60 NW8       29.85R
Minneapolis    MOCLDY    62  48  60 NW8       29.94R
Indianapolis   PTCLDY    63  61  93 SW7       29.87R
Toronto Canada PTCLDY    66  55  68 NW10      29.62S

$$




USA.gov is the U.S. government's official web portal to all federal, state and local government web resources and services.